User: anonymous   Login
Location: Caltech
(34.1382°N, 118.1253°W)
Time: 20:23:19
(UTC-07:00)
Language:

NOSS 3-2 (A) - Orbit

View from above orbital plane
View from above orbital plane
View from above satellite
View from above satellite

Ground track
Ground track

The orbit data is extracted from the following two-line orbital elements,

1 28095U 03054A   15105.07554395 0.00000000  00000-0  00000-0 0    09
2 28095  63.4270 178.5919 0235000 358.4035   1.5965 13.41311062    04
Epoch (UTC): 15 April 2015 01:48:46
Eccentricity: 0.0235000
inclination: 63.4270°
perigee height: 928 km
apogee height: 1280 km
right ascension of ascending node: 178.5919°
argument of perigee: 358.4035°
revolutions per day: 13.41311062
mean anomaly at epoch: 1.5965°
orbit number at epoch: 0

The dashed part of the orbit path shows where the satellite is in the earth's shadow,  

DLR